Weather History for KCNK - October, 2012

Change the Weather History Date:

Monday, October 1, 2012

  Actual Average Record
Temperature  
Mean Temperature 56 °F 61 °F  
Max Temperature 64 °F 73 °F 94 °F (2002)
Min Temperature 47 °F 49 °F 33 °F (1985)
Degree Days  
Heating Degree Days 9 6  
Month to date heating degree days 9 6  
Since 1 July heating degree days 86 79  
Cooling Degree Days 0 2  
Month to date cooling degree days 0 2  
Year to date cooling degree days 1640 1328  
Growing Degree Days 5 (Base 50)    
Moisture  
Dew Point 47 °F    
Average Humidity 68    
Maximum Humidity 84    
Minimum Humidity 52    
Precipitation  
Precipitation 0.05 in 0.08 in 3.10 in (1950)
Month to date precipitation 0.05 0.08  
Year to date precipitation 19.38 24.09  
Snow  
Snow 0.00 in 0.00 in 0.00 in ()
Month to date snowfall 0.0 0.0  
Year to date snowfall 5.8 13.7  
Since 1 July snowfall 0.0 0.0  
Snow Depth 0.00 in    
Sea Level Pressure  
Sea Level Pressure 29.98 in    
Wind  
Wind Speed 9 mph (NW)    
Max Wind Speed 25 mph    
Max Gust Speed 33 mph    
Visibility 10 miles    
Events Rain    
T = Trace of Precipitation, MM = Missing Value Source: NWS Daily Summary

Daily Weather History Graph

Daily Weather History Graph

Search for Another Location

Airport or City:

Trip Planner

Search our weather history database for the weather conditions in past years. The results will help you decide how hot, cold, wet, or windy it might be!

Date:

Astronomy

Oct. 01, 2012 Rise Set
Actual Time 7:27 AM CDT 7:12 PM CDT
Civil Twilight 7:00 AM CDT 7:39 PM CDT
Nautical Twilight 6:29 AM CDT 8:10 PM CDT
Astronomical Twilight 5:57 AM CDT 8:41 PM CDT
Moon 7:50 PM CDT (10/1) 8:57 AM CDT (10/1)
Length of Visible Light 12h 38m
Length of Day
11h 44m
Full, 98% of the Moon is Illuminated
Oct 1
Full
Oct 8
Last Quarter
Oct 15
New
Oct 21
First Quarter
Oct 29
Full

Hourly Weather History & Observations

Time (CDT) Temp. Dew Point Humidity Pressure Visibility Wind Dir Wind Speed Gust Speed Precip Events Conditions
12:55 AM 53.1 °F 45.0 °F 74% 29.91 in 10.0 mi Calm Calm - N/A   Clear
1:55 AM 54.0 °F 43.0 °F 66% 29.91 in 10.0 mi West 4.6 mph - N/A   Clear
2:55 AM 50.0 °F 43.0 °F 77% 29.91 in 10.0 mi West 8.1 mph - N/A   Clear
3:55 AM 50.0 °F 41.0 °F 71% 29.90 in 10.0 mi West 5.8 mph - N/A   Clear
4:55 AM 48.9 °F 39.9 °F 71% 29.91 in 10.0 mi WNW 6.9 mph - N/A   Clear
5:55 AM 46.9 °F 39.0 °F 74% 29.91 in 10.0 mi West 5.8 mph - N/A   Clear
6:55 AM 46.9 °F 39.9 °F 77% 29.92 in 10.0 mi West 6.9 mph - N/A   Clear
7:55 AM 50.0 °F 39.9 °F 68% 29.96 in 10.0 mi WNW 10.4 mph - N/A   Mostly Cloudy
8:55 AM 60.1 °F 46.0 °F 60% 29.98 in 10.0 mi NW 11.5 mph 19.6 mph N/A   Overcast
9:55 AM 62.1 °F 52.0 °F 70% 29.98 in 9.0 mi North 13.8 mph 26.5 mph 0.00 in Rain Light Rain
10:55 AM 59.0 °F 55.0 °F 87% 30.00 in 10.0 mi North 10.4 mph - 0.04 in   Overcast
11:55 AM 61.0 °F 55.0 °F 81% 30.01 in 10.0 mi North 13.8 mph 23.0 mph 0.00 in   Mostly Cloudy
12:31 PM 62.6 °F 53.6 °F 72% 30.02 in 10.0 mi North 18.4 mph 28.8 mph N/A   Mostly Cloudy
12:43 PM 62.6 °F 53.6 °F 72% 30.02 in 10.0 mi North 15.0 mph 24.2 mph N/A   Overcast
12:55 PM 62.6 °F 53.6 °F 72% 30.02 in 10.0 mi North 13.8 mph 27.6 mph N/A   Overcast
1:55 PM 61.0 °F 51.1 °F 70% 30.00 in 10.0 mi North 20.7 mph 29.9 mph N/A   Mostly Cloudy
2:55 PM 57.9 °F 51.1 °F 78% 30.01 in 10.0 mi North 15.0 mph 23.0 mph 0.00 in Rain Light Rain
3:55 PM 57.9 °F 52.0 °F 81% 30.01 in 10.0 mi North 12.7 mph - 0.01 in Rain Light Rain
4:55 PM 60.1 °F 53.1 °F 78% 30.00 in 10.0 mi North 6.9 mph - 0.00 in   Overcast
5:55 PM 63.0 °F 45.0 °F 52% 30.00 in 10.0 mi North 8.1 mph - N/A   Partly Cloudy
6:55 PM 61.0 °F 46.9 °F 60% 30.00 in 10.0 mi North 3.5 mph - N/A   Clear
7:55 PM 57.9 °F 46.9 °F 67% 30.00 in 10.0 mi NW 3.5 mph - N/A   Scattered Clouds
8:55 PM 55.9 °F 46.9 °F 72% 30.01 in 10.0 mi NW 5.8 mph - N/A   Clear
9:55 PM 54.0 °F 46.0 °F 75% 30.02 in 10.0 mi NW 6.9 mph - N/A   Clear
10:55 PM 52.0 °F 43.0 °F 71% 30.03 in 10.0 mi NW 8.1 mph - N/A   Clear
11:55 PM 51.1 °F 42.1 °F 71% 30.03 in 10.0 mi NW 6.9 mph - N/A   Clear